Location: Saint-Restitut
(44.3351°N, 4.7915°E)
Time: 03:04:15
(UTC+00:00)

Cosmos 2058 Rocket - Pass Details

Date: 03 February 2023
Orbit: 610 x 637 km, 82.5° (Epoch: 27 March)

Event Time Altitude Azimuth Distance (km) Brightness Sun altitude
Rises 18:01:33 0° 359° (N) 2,897 6.4 -12.6°
Reaches altitude 10° 18:03:55 10° 8° (N) 1,991 5.5 -13.0°
Maximum altitude 18:08:01 37° 76° (ENE) 974 3.5 -13.8°
Drops below altitude 10° 18:12:07 10° 144° (SE) 1,992 5.4 -14.5°
Sets 18:14:29 0° 152° (SSE) 2,899 6.3 -14.9°
